SL-12 DEB, 43541

Orbit data source: Space-Track

SL-12 DEB, 43541 is space debris in HEO originally from a launch on Fri, 26 Oct 2007 UTC launched from the Tyuratam Missile And Space Complex (TTMTR). Debris objects in space refer to the collection of defunct objects orbiting the Earth. Examples of debris include non-operational satellites, rocket bodies, and fragments generated from explosions, collisions, or faulty payload assembly.

Loading next visibility...
Identifier
43541, 2007-052AH
Orbit
HEO
Country
Flag of CISCIS
Related business
Manufacturer
RKKE
Mission
Spacecraft
Bus & Motor
Unknown
Mass
Unknown
Launch date (UTC)
2007-10-26 (18 years ago)
Launch vehicle
Unknown
Launch site
Tyuratam Missile And Space Complex (TTMTR)
Object type
Payload
Rocket body
Debris
Shape & HBR
Unknown shape, 0.7 m
Radar Cross Section
Medium (>0.1 m² and <1 m²)

Expand to show TLE details & history
Last TLE update: 2 days ago

TLE from 2 days ago
0 SL-12 DEB
1 43541U 07052AH  25304.45287542  .00000724  00000-0  29672-2 0  9993
2 43541  65.2096 358.8091 5686756 221.5340  77.4015  4.25979459113903
Epoch: 2025-10-31T10:52Z
TLE epoch observation values (Epoch: 2025-10-31T10:52:08.436Z)
Latitude
-0.00003°
Longitude
155.79081°
Altitude
12,573.425 km
Speed
4.156 km/s
True Right ascension
23h 55m 17s
True Declination
0° 00' 00"
Sunlit
Object was in daylight at epoch
Visualization orbit readout
Latitude
Unknown
Longitude
Unknown
Altitude
Unknown
Speed
Unknown
Apparent Right ascension
Unknown
Apparent Declination
Unknown
Sunlit
N/A
Visualization observer readout
Local Sidereal Time
23:04:00
Azimuth
Unknown
Elevation
Unknown
Doppler factor
Unknown
Orbital elements
Apogee altitude
18,836.035 km
Perigee altitude
554.774 km
Semi-major axis
16,073.542 km
Eccentricity
0.56868
Inclination
65.2096°
RAAN
358.8091°
Arg. of periapsis
221.534°
True anomaly
138.51998°
Mean anomaly
77.4015°
Eccentric anomaly
108.33084°
Mean motion
1.06506 °/min
Orbital period
338.01 mins
BSTAR
0.0029672
Loading maneuver chart data...
Computing Atmospheric mass density...
Loading historical data...
Loading historical data...
Loading historical data...
Loading historical data...
Loading historical data...
Loading historical data...
Loading historical data...

Documentation

Showing up to 5 results
|